Retour au catalogue

FENGYUN 1C DEB

ActifSSO
NORAD 43213·DEBRIS·🇨🇳 China

Lancé May 10, 1999 depuis Taiyuan Satellite Launch Center

Loading…

Prochains Passages (prochaines 24 heures)

TLE

FraisSource: Space-Track

Époque: Sep 14, 2026, 15:09 UTC

1 43213U 99025EYM 26257.63191078  .00001902  00000-0  81233-3 0  9997
2 43213  98.7161 325.2511 0055064 147.5456 212.9129 14.25372328443013

Suivez FENGYUN 1C DEB en temps réel avec AllMySat

Download on the App Store